RH
66 87 93 89 80 67 56 47 40 38 43 54 66 80 92 98 97 98 99 99 100 100 100 101 100 100 99 99 100 99 100 100 98 93 86 82 79 75 75 73 68 66 66 68 72 75 77 79 80 81 85 92 96 96 95 92 89 88 87 86 82 79 77 76 77 76 70 67 70 68 63 62 61 60 59 56 52 50 48 46 41 47 68 84 89
93 91 75 58 44 33 29 31 40 55 73 86 96 100 100 100 100 100 99 100 100 99 100 100 99 100 100 100 101 99 98 96 92 86 83 84 82 77 77 78 73 70 72 75 78 80 82 83 84 84 87 95 98 98 96 93 89 87 85 85 83 80 79 79 80 81 76 70 72 73 67 65 64 62 62 58 55 53 49 47 43 40 54 76 87
80 62 44 33 28 29 39 56 75 91 99 99 98 94 90 89 88 88 89 93 96 96 97 97 96 97 97 98 99 98 97 95 91 88 86 85 82 80 81 82 80 79 80 82 84 86 87 87 87 87 90 96 99 98 96 93 90 87 85 85 85 82 81 81 83 86 82 74 74 76 72 68 67 65 64 61 58 57 52 48 46 40 44 68 89
47 35 28 26 33 50 72 89 96 95 90 84 77 70 65 61 60 61 62 67 73 76 80 84 87 88 89 90 92 94 98 99 98 96 94 91 86 85 87 87 88 87 88 89 91 91 92 91 90 89 93 99 101 99 97 95 92 90 88 87 87 85 82 82 85 88 86 81 78 79 77 72 70 67 66 63 60 61 58 51 47 41 39 58 89
33 28 29 40 62 82 87 81 74 67 63 60 55 53 53 52 53 54 54 56 59 60 62 66 69 72 74 76 77 82 91 99 101 100 99 97 92 91 93 94 93 92 93 95 97 97 96 95 93 92 95 100 101 99 96 95 93 92 92 90 89 88 84 84 88 89 90 88 83 83 83 78 73 70 68 67 64 63 61 54 49 43 36 47 81
30 32 45 63 76 74 60 51 52 53 53 53 52 53 53 54 56 59 60 61 63 65 66 66 68 69 71 75 78 82 90 99 101 100 100 100 97 97 99 99 97 96 97 98 100 101 100 97 95 94 97 100 99 97 95 93 95 96 95 93 90 88 87 89 93 94 93 92 89 88 89 85 78 72 69 69 70 69 64 55 49 46 40 43 70
40 54 63 64 57 49 45 49 52 52 53 53 53 54 55 57 61 63 65 68 68 71 73 74 78 82 85 90 93 96 98 100 101 100 100 101 99 99 101 101 101 100 100 101 101 102 101 98 96 95 96 98 97 95 93 93 95 95 94 91 86 86 90 95 100 100 98 96 94 93 94 91 83 75 73 72 73 75 69 58 50 48 48 50 67
63 68 60 49 45 47 50 53 53 52 53 53 53 57 58 60 62 64 69 73 75 78 80 83 90 95 97 99 100 101 101 101 101 101 100 100 100 100 101 101 102 102 101 101 102 102 101 98 97 96 97 97 96 95 93 93 94 93 91 90 88 90 95 99 101 102 101 100 99 97 98 97 87 79 76 74 75 76 69 65 61 55 54 59 73
70 58 49 46 48 51 54 55 54 53 53 55 58 62 63 63 65 67 71 76 81 85 89 95 101 101 101 102 101 103 103 101 101 101 100 100 100 100 100 101 102 103 101 101 101 102 101 98 96 96 96 97 97 96 95 95 95 94 91 91 94 98 101 102 102 103 102 102 101 99 102 101 91 81 77 75 79 77 66 66 71 67 62 64 76
64 53 50 49 51 55 56 55 54 54 58 62 64 66 67 68 69 71 76 81 87 92 94 99 104 103 103 103 102 103 103 100 99 100 100 101 100 100 100 99 99 100 100 100 101 101 100 97 96 96 97 98 100 99 98 99 99 98 95 95 96 97 99 100 102 102 101 101 100 99 101 101 90 82 78 77 80 77 66 67 72 72 69 66 71
61 55 51 50 54 56 55 55 56 59 62 64 66 68 70 71 73 76 81 86 91 95 97 98 99 99 100 101 101 101 102 99 99 100 100 100 100 101 101 100 96 94 95 99 100 100 98 95 94 96 98 100 102 101 99 100 102 101 99 100 99 98 97 97 97 99 100 100 100 100 102 99 88 80 81 81 81 77 72 72 74 73 74 75 79
59 55 53 55 57 56 56 58 59 60 62 66 69 70 71 73 76 79 84 90 94 96 97 96 94 92 92 94 95 98 100 100 100 101 100 100 100 99 100 102 99 96 95 95 96 97 95 94 93 95 98 100 102 102 99 98 100 101 100 101 100 100 100 97 94 93 95 95 96 99 100 95 86 82 85 85 84 83 81 79 77 74 77 86 94
58 56 55 59 59 59 61 61 61 63 66 68 69 70 73 76 79 82 88 94 97 97 96 92 89 86 85 89 95 99 99 99 101 101 100 100 100 99 100 101 101 100 99 95 94 92 89 91 93 95 95 96 97 99 97 95 95 96 98 99 100 100 100 99 96 93 92 93 93 94 94 92 88 83 85 90 90 90 90 86 82 77 75 83 94
58 58 58 61 62 63 64 64 66 67 68 70 71 72 75 78 80 85 92 95 98 97 94 91 88 87 89 95 101 103 100 98 101 101 100 101 99 96 99 102 100 100 100 99 98 96 93 94 96 97 97 95 93 92 92 94 95 94 94 94 98 100 100 100 100 98 97 96 95 93 90 91 90 85 88 97 95 88 86 87 90 87 79 78 85
62 63 63 65 65 65 67 68 68 69 69 72 73 73 77 80 81 87 93 97 98 96 94 92 90 91 96 99 100 102 101 100 101 100 100 100 97 95 99 101 100 100 100 100 101 100 99 100 99 100 100 98 96 91 87 89 92 93 93 90 91 97 100 100 100 100 100 99 96 93 90 90 91 86 89 93 86 81 87 93 95 91 80 74 77
68 68 68 68 67 69 71 71 70 71 72 74 75 76 79 80 82 88 94 96 95 94 92 90 90 95 100 98 96 100 101 100 101 101 100 100 99 99 101 100 100 101 100 100 101 100 100 100 98 99 100 99 98 95 92 92 93 94 95 90 87 90 94 95 96 99 102 100 96 91 90 93 92 84 85 85 80 85 97 97 90 83 74 68 67
71 72 72 70 70 72 74 74 74 74 74 76 78 78 80 81 84 90 95 95 95 95 93 91 94 99 99 96 97 102 102 101 102 101 100 101 100 100 101 100 100 101 100 100 101 100 99 96 94 97 99 98 97 96 97 100 99 99 99 96 92 90 87 87 91 96 99 100 99 93 90 93 89 81 84 88 84 88 94 89 84 87 86 81 78
71 73 73 72 74 75 75 77 77 76 77 79 80 80 81 83 86 90 94 96 97 97 97 98 100 98 95 97 103 105 100 98 102 102 99 100 101 100 100 100 100 100 100 100 99 97 98 96 95 97 98 97 97 97 98 101 101 100 100 99 99 95 88 85 88 92 94 97 100 98 94 92 87 83 90 94 92 93 94 88 89 97 99 96 95
72 74 73 74 76 76 77 78 78 78 78 79 82 84 85 87 89 92 94 94 94 97 99 100 98 92 91 94 98 100 95 92 97 102 101 99 100 100 100 100 100 100 100 100 98 96 96 96 96 99 98 96 96 96 99 102 101 100 100 101 101 96 91 90 89 86 88 92 96 99 100 99 96 95 98 98 97 99 100 97 97 100 101 98 100
72 72 73 74 75 76 78 78 78 79 79 79 82 86 89 92 94 95 95 94 96 100 100 97 93 91 92 92 91 91 91 89 91 98 102 101 100 100 100 100 100 100 100 101 100 98 94 91 92 97 99 99 98 97 99 101 100 100 101 100 99 95 94 97 95 88 86 90 92 96 100 100 100 101 100 99 100 100 100 101 100 100 102 99 99
71 70 72 74 75 76 78 79 79 80 79 81 84 87 91 95 95 98 100 100 100 101 95 91 92 93 94 95 94 91 90 91 91 94 97 100 100 100 100 100 100 100 100 100 100 100 97 93 91 91 92 97 101 100 100 101 99 100 101 98 96 97 99 100 99 95 93 93 95 97 100 101 100 100 100 100 101 100 100 101 98 96 99 97 95
71 70 72 74 74 76 77 79 80 80 79 83 89 91 93 94 95 98 102 101 101 99 92 89 92 92 90 93 96 95 93 93 95 94 93 94 98 101 100 100 100 100 100 99 97 96 95 94 93 90 89 94 101 101 100 100 100 100 101 98 98 101 99 96 97 101 100 98 99 100 101 101 99 100 101 100 98 99 98 97 92 88 88 88 86
73 72 72 73 74 76 77 79 81 80 80 86 94 98 96 93 93 97 101 102 101 98 94 91 90 88 88 91 94 96 95 95 97 98 95 90 92 99 101 100 100 100 100 99 95 93 92 90 87 86 89 97 102 101 100 100 100 100 100 100 100 101 100 97 99 102 101 99 101 101 100 102 102 100 98 94 90 90 90 88 87 87 86 85 85
76 75 74 73 74 75 77 80 82 81 82 88 97 100 98 93 93 96 101 102 101 99 98 96 93 92 94 94 94 94 93 93 96 100 101 96 92 94 99 102 101 99 100 101 99 98 95 88 83 85 93 101 102 100 100 100 100 100 100 100 100 100 100 100 100 100 101 100 100 100 101 101 99 94 90 88 87 88 90 91 93 94 93 90 91
77 77 76 74 74 76 78 81 82 82 83 91 99 102 100 96 96 99 101 101 101 100 98 97 97 98 98 99 99 95 89 90 95 100 103 102 97 95 97 100 101 101 100 99 100 101 94 87 87 94 99 102 101 100 100 100 100 100 100 100 100 100 99 100 100 100 101 101 100 101 101 99 95 92 92 94 97 97 95 94 94 95 94 91 91
78 79 79 76 76 78 80 81 83 83 84 88 95 102 102 98 97 100 101 101 100 100 99 98 99 100 99 100 101 96 90 91 97 100 102 103 101 99 99 98 98 101 101 99 101 101 92 87 95 102 100 100 100 99 98 98 99 100 100 99 100 100 99 100 101 100 100 101 99 99 98 96 95 96 96 96 99 97 93 93 92 89 88 88 88
82 82 82 80 78 80 83 84 85 86 86 86 91 97 100 97 97 100 101 100 100 100 99 99 100 101 100 101 101 98 95 96 97 97 98 99 99 99 100 100 99 98 98 99 100 96 89 90 100 103 99 99 100 98 97 98 99 100 101 100 100 100 100 100 100 100 99 98 97 97 96 96 98 97 92 91 94 92 90 94 95 90 87 88 90
86 85 86 83 81 82 84 86 89 89 89 89 92 97 101 100 99 101 101 100 101 101 100 100 101 100 100 100 100 100 99 97 94 94 96 97 97 98 99 99 99 97 96 97 95 91 89 94 101 102 100 100 100 99 99 100 100 99 100 100 100 100 100 100 101 100 98 97 97 99 100 100 100 95 86 84 87 86 86 90 91 88 88 91 92
86 86 88 86 84 84 85 88 91 92 91 91 91 93 98 102 102 102 101 100 100 100 100 100 100 100 101 100 100 101 100 97 91 90 94 97 98 100 100 97 95 94 94 94 94 93 96 100 101 101 101 100 99 100 100 100 99 99 99 99 100 100 100 100 100 100 100 99 100 101 100 97 95 90 84 84 84 84 87 92 90 87 89 90 86
85 86 90 89 86 86 87 89 92 93 95 97 93 88 87 91 95 98 100 102 102 100 100 100 101 101 100 99 99 101 102 100 93 85 88 93 91 91 96 98 97 96 94 95 98 99 98 98 98 97 97 97 98 100 101 100 100 101 100 100 100 100 100 100 100 100 100 100 101 101 99 97 95 93 92 94 93 89 90 94 93 90 91 93 91
87 89 93 92 90 89 89 89 91 94 97 100 100 96 88 81 79 83 90 97 101 100 100 100 101 101 100 99 100 100 100 100 95 87 89 94 89 83 86 92 98 100 96 94 98 99 97 95 95 94 95 96 99 100 100 100 101 101 101 101 101 100 101 100 100 101 101 100 101 101 100 100 100 100 99 100 101 98 95 95 97 94 89 88 94
89 92 96 95 92 91 90 89 92 96 99 98 100 102 99 88 77 72 74 83 92 98 100 100 99 100 101 99 100 101 100 101 99 95 96 100 98 94 93 93 95 97 95 91 94 99 100 99 98 98 98 99 101 100 101 102 102 100 100 99 99 98 98 97 97 99 100 101 101 101 100 99 98 97 97 97 99 99 97 95 97 99 92 85 89
89 95 99 98 95 93 90 90 93 99 102 102 102 104 103 100 93 82 72 69 72 78 85 90 91 94 94 93 95 99 100 100 100 99 99 100 100 100 100 97 97 99 99 97 98 100 101 100 100 101 101 101 100 100 100 101 100 97 95 93 90 88 86 83 83 86 89 94 97 97 97 96 94 92 93 94 95 97 96 94 95 98 99 96 96
88 94 99 101 100 96 92 93 97 100 102 104 105 105 103 101 101 98 90 81 73 68 69 75 82 88 90 91 94 99 101 100 100 101 101 100 100 101 101 100 98 97 97 98 100 100 101 101 101 101 101 101 101 101 100 99 96 92 88 85 81 80 80 79 79 81 85 91 93 93 93 93 93 92 91 91 91 90 89 90 90 90 93 98 101
87 92 96 100 101 97 94 97 100 101 103 104 105 105 103 100 99 101 101 98 95 90 83 79 82 88 92 94 97 100 101 102 101 101 98 96 96 98 98 96 93 90 89 90 91 92 95 98 99 100 101 101 101 101 100 97 93 89 85 82 79 79 82 85 86 87 90 93 92 91 90 89 89 91 90 89 89 89 88 89 89 87 87 91 96
89 92 94 99 101 97 96 98 101 103 103 103 103 103 101 99 99 101 100 98 100 101 97 90 87 88 90 92 94 93 92 95 99 99 97 94 93 93 92 90 88 87 86 84 84 85 87 90 92 96 99 100 100 99 96 92 89 87 85 83 83 83 85 88 90 89 89 90 88 87 87 85 85 86 86 86 88 90 92 93 91 88 86 86 91
89 95 98 101 102 100 97 97 100 102 101 100 100 100 99 97 97 99 99 98 99 101 99 95 92 88 85 87 92 92 88 89 94 95 93 92 91 89 89 90 89 88 85 83 84 86 87 89 91 93 95 98 100 100 97 93 89 87 86 87 89 90 89 88 88 88 87 88 88 87 87 87 86 87 88 89 91 92 94 95 93 91 90 91 95
81 93 101 103 102 102 100 98 98 100 99 98 98 99 99 98 97 97 97 98 99 101 100 98 98 96 92 92 97 98 93 87 86 86 86 87 89 90 94 97 96 95 94 93 92 92 93 95 97 96 97 99 100 101 102 101 97 96 96 96 97 98 95 92 91 92 93 94 96 97 97 96 95 96 97 98 98 98 99 100 98 98 98 99 100
70 80 94 101 101 100 101 101 100 99 100 100 99 99 100 100 99 98 98 98 98 100 100 99 99 100 99 98 99 100 96 92 90 91 91 91 93 95 99 102 102 102 103 103 101 100 98 99 100 101 101 102 102 101 102 103 102 102 102 102 101 101 100 99 99 100 101 101 101 102 102 102 102 101 101 100 100 100 100 101 100 100 101 100 101
68 71 81 93 99 99 99 101 101 101 101 102 102 101 102 102 101 100 100 99 99 100 100 101 101 100 100 100 100 100 99 98 99 99 98 97 96 95 96 99 101 103 103 104 104 102 99 99 100 102 102 102 101 101 101 100 101 101 102 102 102 102 101 101 102 102 103 103 102 102 103 103 102 101 100 100 100 100 100 101 100 100 101 100 100
72 72 74 81 90 96 99 100 101 101 102 103 104 104 104 103 103 102 101 100 101 100 100 101 102 101 101 100 100 100 100 100 100 100 100 100 100 99 98 99 99 100 101 101 101 101 100 100 100 100 101 101 101 100 100 100 100 101 100 100 101 101 100 101 101 101 101 101 101 101 101 101 101 101 100 101 101 100 100 101 100 101 102 102 101
72 74 75 75 79 85 94 100 103 103 102 102 104 106 106 105 104 103 102 102 102 101 100 100 100 100 101 101 100 100 100 100 100 100 100 101 101 101 101 101 100 100 100 100 100 100 100 101 100 100 100 101 100 100 101 100 100 100 101 101 100 100 100 100 100 100 100 100 100 100 100 100 100 101 101 103 104 103 102 102 101 102 103 103 102
68 70 74 75 75 78 85 93 99 103 105 104 104 105 106 107 107 105 104 103 103 102 101 100 99 99 100 101 101 100 100 100 100 100 100 101 101 101 101 101 100 100 100 100 100 100 100 100 101 100 100 100 100 100 100 100 100 100 100 100 100 100 100 100 100 100 100 100 100 100 100 100 101 101 102 104 105 104 104 103 102 102 103 102 102
65 66 68 71 73 75 78 82 88 96 102 105 106 105 105 105 106 106 105 105 104 103 101 100 100 100 100 100 101 101 100 100 101 100 100 100 100 101 101 100 100 100 101 100 100 101 100 100 100 100 100 100 101 100 100 100 100 100 100 100 100 100 100 100 100 100 100 100 100 100 100 101 102 101 102 103 104 104 105 104 103 103 103 103 102
65 65 65 66 67 70 74 76 79 84 90 97 101 104 105 104 104 105 105 105 104 104 102 100 100 101 101 100 100 101 100 100 100 100 100 100 100 100 101 101 101 101 101 100 100 100 100 100 100 100 100 100 100 100 101 100 100 100 100 100 100 100 100 100 100 100 100 100 100 100 101 104 105 103 101 101 102 103 104 104 103 102 102 102 101
72 71 71 69 67 66 68 72 76 78 81 85 91 97 102 105 105 104 104 103 102 103 104 101 100 101 101 100 100 100 101 101 100 100 100 100 100 100 100 100 102 102 101 100 100 100 100 100 100 100 100 100 100 100 100 100 100 100 101 100 100 100 100 100 100 100 100 100 100 100 101 103 105 104 103 101 101 101 101 101 101 102 103 103 103
84 85 85 83 79 74 70 69 71 74 78 81 83 87 93 99 103 106 105 102 100 102 104 103 101 101 100 100 100 100 100 100 100 101 101 100 101 102 102 101 102 102 101 100 100 100 100 100 101 100 100 100 100 100 100 100 100 100 100 100 100 100 100 100 100 100 100 100 100 100 100 101 103 104 103 102 101 101 100 100 100 101 102 102 103
92 94 95 95 95 92 85 77 71 70 72 77 80 83 86 89 94 101 106 105 102 100 101 103 104 103 101 100 100 100 100 100 100 100 100 100 100 102 103 104 104 103 102 102 102 102 101 100 100 100 101 101 100 100 100 100 100 100 100 100 100 100 100 100 100 100 101 101 100 100 100 100 101 102 103 102 101 100 100 100 100 100 100 101 101
97 99 99 100 102 103 101 96 87 77 72 72 75 80 84 87 89 93 99 103 104 103 101 101 102 103 103 101 100 99 100 101 100 100 100 101 100 100 101 103 105 106 105 104 104 104 104 103 101 100 100 100 101 101 100 100 100 100 100 100 100 100 100 100 100 100 100 100 100 100 101 100 100 101 101 101 101 100 100 100 100 100 100 100 100
102 103 104 105 105 106 107 106 101 94 86 78 73 73 79 86 91 93 94 96 99 103 104 102 101 101 102 101 101 100 100 100 100 101 100 100 100 100 100 101 102 104 105 105 104 104 104 103 103 102 101 101 100 100 100 100 101 101 100 100 100 100 100 100 100 101 100 100 101 102 102 102 103 103 102 101 101 100 100 100 100 100 100 100 101
104 105 106 107 108 108 107 104 103 102 100 93 84 76 74 78 86 95 99 98 97 99 102 103 102 102 102 101 101 101 101 100 100 101 100 100 100 100 100 100 100 101 102 104 105 104 102 100 99 99 99 100 101 101 101 100 100 100 100 100 100 100 101 100 100 100 100 100 102 103 104 104 105 105 105 104 102 101 101 101 100 100 100 101 102
Wind_Speed
35 32 32 34 37 40 43 44 43 42 39 35 31 29 26 25 26 26 27 27 27 28 29 30 31 34 35 37 37 38 38 38 39 41 43 43 39 36 33 34 37 39 39 39 38 38 40 40 39 38 37 38 38 37 36 35 35 36 36 36 35 34 35 37 39 41 42 42 40 38 35 31 29 27 26 26 24 22 22 22 22 24 26 26 25
33 35 38 42 44 44 43 40 37 33 30 28 27 26 26 27 28 29 31 32 33 33 33 33 34 35 36 37 38 39 40 41 42 43 42 40 37 35 33 35 37 38 39 39 38 38 39 39 38 38 37 38 37 37 36 35 35 36 36 36 35 34 33 35 38 39 42 43 40 38 36 32 29 28 26 26 24 23 23 22 21 23 25 26 26
37 41 44 45 43 40 38 34 30 27 28 30 33 35 35 35 36 36 38 39 39 40 41 41 42 41 41 41 41 42 43 43 43 41 39 38 36 35 34 36 37 38 38 38 38 38 39 39 38 37 37 37 37 36 36 36 35 36 36 36 35 33 31 32 34 36 39 41 39 37 36 33 29 27 26 25 24 24 24 23 22 22 24 25 25
43 45 44 42 39 36 34 31 29 30 35 39 43 45 44 43 42 41 42 43 44 45 46 48 49 50 49 48 46 45 44 43 42 39 38 37 36 35 35 37 37 38 38 38 38 38 38 38 38 37 37 37 36 36 35 36 36 36 36 35 34 32 31 30 32 33 35 39 39 36 36 34 29 26 26 25 24 24 24 24 23 21 22 24 23
43 42 41 39 37 34 33 34 36 40 43 45 46 46 46 45 43 41 41 41 42 43 45 47 48 50 51 50 49 46 44 43 42 40 38 37 35 35 36 37 37 37 37 37 38 38 38 38 37 37 37 37 35 35 35 35 35 35 35 34 33 32 31 30 30 31 33 37 39 37 36 35 29 25 25 25 24 24 24 23 22 21 20 21 21
41 40 40 39 38 38 39 40 42 44 45 46 46 46 46 45 44 42 41 40 40 40 41 41 42 42 42 41 40 39 38 39 40 40 39 37 35 35 35 36 36 36 36 36 37 37 37 37 37 37 37 36 35 34 34 34 34 34 34 34 32 31 31 30 30 29 31 33 36 36 36 34 29 25 24 23 24 25 25 22 19 18 18 18 20
39 39 41 42 42 42 43 43 44 45 46 46 46 46 45 45 44 44 42 41 41 39 39 39 37 35 34 32 32 32 33 35 37 37 37 36 35 35 35 34 34 34 35 35 35 36 36 36 36 36 37 36 35 35 34 34 34 34 34 33 32 31 30 30 29 29 30 31 33 35 34 32 28 25 23 22 23 24 23 22 18 14 14 17 18
37 39 42 43 43 43 43 44 45 45 45 46 46 46 46 45 45 44 43 42 41 39 38 36 33 31 30 30 32 32 32 32 33 35 35 34 33 34 34 33 33 33 33 34 34 35 35 35 35 36 36 36 35 34 34 34 34 34 34 32 30 29 29 29 30 30 30 31 33 33 33 31 28 24 23 23 23 21 18 16 16 13 12 15 16
38 42 43 43 43 44 44 45 45 45 46 47 47 47 47 46 45 44 42 41 40 38 35 32 30 29 29 30 31 31 30 29 29 31 32 32 32 32 32 32 32 32 32 33 34 34 34 34 34 35 35 35 34 34 33 34 34 34 33 32 31 30 29 29 29 30 31 31 33 33 32 32 29 24 23 22 20 19 14 14 15 13 11 13 13
41 44 43 43 44 45 45 46 46 46 46 47 47 47 46 46 44 43 41 39 37 35 33 30 28 28 28 28 27 27 27 26 27 28 29 30 30 31 31 30 30 31 31 33 34 33 33 33 33 34 34 34 34 33 33 33 32 32 32 32 32 31 31 32 31 30 31 32 34 34 33 33 29 24 22 20 17 16 14 14 16 13 11 12 12
43 43 43 44 45 45 46 47 47 46 46 46 46 46 45 44 42 40 39 36 34 32 31 29 28 26 26 27 26 26 26 25 25 27 28 27 28 30 31 30 29 29 30 31 33 33 32 32 32 33 34 34 34 33 33 33 30 28 28 29 30 29 29 31 32 33 33 33 34 34 34 34 29 23 20 18 15 14 13 13 15 13 10 10 10
42 43 44 44 45 46 46 47 47 47 47 46 46 45 44 42 40 39 36 34 32 31 29 29 28 26 27 27 26 27 27 26 26 27 28 27 26 28 31 31 30 29 29 29 30 30 30 30 31 32 32 32 33 33 33 33 31 29 27 26 27 28 28 27 28 30 32 34 34 33 33 32 27 21 19 17 14 12 10 11 13 14 12 10 11
42 43 44 44 45 46 46 47 47 47 47 46 45 44 42 41 39 37 35 33 31 30 29 28 28 27 27 28 29 30 29 28 28 28 28 26 25 25 28 30 30 30 30 29 28 27 26 27 28 29 28 28 29 30 32 33 32 31 29 27 27 27 26 26 25 24 26 29 31 32 31 28 25 20 15 13 13 12 10 10 11 13 14 13 13
41 43 44 44 45 45 46 47 47 47 47 46 45 43 41 40 38 35 33 32 31 30 29 29 29 29 29 31 33 32 28 27 29 28 26 24 23 23 25 27 28 29 30 29 28 28 27 27 28 29 28 26 24 25 27 28 29 30 29 30 31 28 25 25 25 24 23 24 27 29 27 25 22 18 13 12 14 13 10 9 9 12 15 15 15
41 43 43 44 44 45 46 47 47 47 47 45 44 42 40 39 37 34 32 31 31 31 30 30 31 31 32 34 35 31 28 27 27 26 23 21 19 21 23 25 26 27 28 28 28 28 28 28 29 29 29 27 25 23 23 24 26 27 27 29 33 32 29 27 26 25 25 26 26 25 25 23 20 15 13 14 13 10 7 7 8 10 14 16 17
42 43 43 44 44 44 45 46 46 46 46 44 42 40 39 38 35 33 33 32 31 30 29 30 31 32 34 37 34 31 28 27 26 24 21 18 18 20 23 24 24 24 25 26 26 26 26 26 28 29 28 27 26 24 23 22 22 24 25 26 31 35 35 33 29 26 25 26 27 25 23 22 18 13 14 14 10 7 6 7 5 5 8 10 13
42 43 43 43 44 43 44 45 45 45 44 42 41 39 38 37 35 33 34 34 32 31 30 31 32 34 37 37 33 30 29 26 24 22 20 18 18 19 20 22 22 23 24 24 24 25 25 26 27 28 27 26 25 24 23 22 22 24 25 24 25 30 35 37 35 30 26 24 25 24 20 17 17 16 15 13 10 8 8 7 3 2 4 5 7
43 43 43 43 43 43 44 44 44 43 42 39 38 38 37 36 35 34 34 34 33 32 32 33 34 35 36 33 30 29 27 24 22 22 19 18 19 19 19 20 21 22 24 24 24 25 25 24 25 26 27 26 25 25 23 22 23 25 26 26 24 25 29 32 35 35 31 26 24 24 19 15 16 15 14 12 10 10 11 10 6 6 8 9 11
43 43 43 43 43 43 43 42 42 41 39 37 36 36 37 36 36 35 33 32 32 33 34 35 35 34 32 29 28 28 25 22 20 21 19 18 18 18 18 19 19 20 21 22 23 25 25 25 25 26 27 27 26 26 25 23 25 26 26 27 28 26 24 23 27 33 34 30 27 26 25 21 19 18 18 15 14 16 17 17 15 14 14 14 15
42 43 43 43 43 42 42 41 41 39 37 36 35 35 36 37 37 36 34 31 32 35 35 34 33 31 30 29 28 26 24 22 21 20 19 19 19 18 18 18 18 19 20 20 22 24 25 27 28 27 27 26 26 26 25 23 25 26 26 27 30 28 23 19 20 25 30 30 28 27 28 28 27 27 27 24 21 21 21 22 21 19 19 18 17
42 43 43 43 42 42 41 40 39 38 36 35 35 36 36 36 37 37 36 34 35 36 34 32 31 31 30 29 29 26 23 22 21 20 19 18 18 18 18 18 19 20 21 22 23 24 26 28 29 29 28 27 26 25 25 24 24 25 26 28 28 26 22 19 17 20 25 27 26 26 27 29 31 31 30 28 25 23 22 22 22 21 21 20 18
42 43 43 42 42 41 40 39 38 37 35 35 36 37 36 36 36 36 36 36 36 35 34 32 32 32 31 30 30 27 23 20 20 20 19 17 17 17 18 19 19 19 21 23 25 27 28 29 30 30 30 28 26 25 26 25 25 26 27 27 25 23 21 18 16 18 22 24 24 23 24 25 27 27 28 29 28 26 25 24 22 20 20 19 17
42 42 42 42 41 40 40 39 38 36 35 34 36 37 37 36 35 35 35 36 36 36 35 34 33 32 32 32 32 29 24 21 19 18 18 17 16 16 17 18 19 19 21 24 26 27 28 28 29 30 29 27 26 25 25 26 26 27 27 25 23 22 22 20 17 17 20 22 21 21 21 21 21 21 22 23 23 22 21 20 18 17 16 16 15
41 42 42 42 41 40 40 39 37 36 34 34 36 37 37 37 36 35 35 36 37 37 36 35 34 34 35 37 36 30 25 22 21 19 18 17 17 16 17 18 18 19 20 23 25 25 26 26 24 23 23 24 24 24 24 24 25 26 26 24 24 23 23 23 21 18 19 20 21 20 20 20 18 17 15 14 13 14 15 15 16 16 16 15 15
42 42 41 41 41 40 40 39 37 35 34 34 36 38 38 37 36 35 35 36 37 37 37 36 36 36 38 40 39 33 25 23 23 20 16 14 14 14 15 17 19 19 20 22 23 25 25 22 19 19 19 20 21 21 22 22 23 24 24 23 23 24 25 26 24 21 20 21 21 21 21 20 17 14 12 11 12 13 14 15 16 18 17 17 16
42 41 41 41 41 40 40 40 38 36 35 34 35 37 37 37 36 35 35 36 36 37 36 36 37 39 39 39 39 33 26 24 22 17 12 10 9 9 10 13 17 20 22 22 21 22 21 17 16 17 17 16 15 16 17 18 19 21 23 23 23 23 25 27 28 26 23 21 21 21 20 17 14 12 12 12 12 13 13 13 15 17 18 19 18
41 41 41 41 41 40 40 40 39 37 36 35 36 37 36 35 35 35 34 35 35 36 36 37 39 39 37 37 38 33 27 25 21 13 9 8 9 9 10 10 12 16 21 22 20 19 18 15 14 14 13 12 12 13 14 17 18 19 22 24 24 23 23 25 28 29 25 22 22 22 18 14 12 13 14 13 12 12 12 12 11 11 13 15 17
40 40 40 40 41 41 40 39 38 37 37 36 37 38 37 35 34 33 32 32 32 34 36 37 37 34 32 33 35 32 29 24 16 11 11 11 12 14 15 13 11 11 15 19 19 17 15 13 13 12 11 12 14 16 16 17 18 18 20 22 23 24 24 23 24 27 26 24 23 21 17 15 15 16 15 13 11 10 12 12 9 6 6 8 12
39 39 39 40 40 40 40 39 37 37 37 37 37 37 35 33 32 31 30 28 28 31 32 32 31 29 28 28 30 32 33 27 16 12 13 14 14 17 18 14 10 9 9 13 16 14 12 12 12 13 13 12 12 11 9 11 13 13 15 18 20 23 24 22 23 26 27 25 22 19 16 16 16 15 15 14 12 12 12 12 10 7 6 7 8
39 39 39 39 40 40 40 38 37 36 37 37 38 37 35 32 29 28 28 28 28 27 25 23 23 24 24 23 23 26 31 29 19 13 12 15 16 15 14 12 9 9 6 9 14 11 10 10 10 11 10 9 10 11 11 10 9 10 11 13 14 16 17 17 17 19 20 19 17 16 14 14 14 14 14 16 16 15 14 13 12 10 10 10 10
38 38 38 38 39 39 39 38 37 36 36 36 38 39 38 36 32 29 28 28 28 26 21 17 18 20 21 20 20 22 25 26 20 14 14 17 17 11 9 9 9 7 4 6 11 10 9 9 8 8 7 8 10 13 11 9 8 8 9 11 12 13 13 13 13 14 15 15 15 14 14 14 15 16 17 17 16 15 14 14 13 13 13 14 14
35 36 36 37 37 37 37 36 36 36 36 36 37 37 38 39 38 35 31 28 27 26 23 19 17 18 18 18 18 21 23 23 20 16 13 13 12 9 8 7 5 6 4 5 8 7 6 5 4 4 6 9 12 13 11 9 9 9 9 10 10 10 10 11 11 12 13 13 14 14 15 16 18 19 19 18 17 16 15 15 15 15 15 16 18
33 34 35 35 36 35 35 35 35 35 35 35 36 35 35 36 38 39 36 32 27 24 23 21 19 18 18 17 17 19 20 20 18 17 16 14 13 13 13 12 8 2 4 8 9 7 6 5 4 4 4 6 7 7 7 7 8 7 8 8 8 9 9 10 11 12 13 14 15 16 17 18 18 20 20 20 20 19 18 18 17 17 17 17 17
31 32 33 34 35 34 34 34 34 34 33 33 33 33 32 32 33 35 37 37 33 27 24 23 22 20 20 19 18 18 20 20 19 18 18 16 15 13 11 10 11 11 7 5 3 3 5 5 6 6 6 6 6 6 6 6 7 8 9 10 11 12 12 13 13 14 14 15 16 17 18 19 20 20 20 21 21 21 21 21 20 21 21 20 18
32 32 31 32 33 33 32 32 32 33 33 32 31 31 30 29 30 31 32 33 34 33 30 28 26 24 23 22 21 20 20 20 19 20 20 18 15 13 10 8 9 11 11 10 9 6 3 2 3 4 5 5 6 6 7 7 7 8 9 11 12 13 14 14 14 15 15 16 17 18 19 20 21 21 21 21 21 22 22 22 22 22 24 26 24
33 32 32 32 32 32 31 31 31 31 31 31 30 29 28 27 28 29 28 28 28 30 31 30 27 25 23 23 23 23 21 20 20 20 19 19 17 15 12 11 12 12 12 12 11 10 7 5 4 4 5 6 7 7 8 9 10 10 11 11 12 13 14 14 15 16 17 18 18 19 20 20 21 21 21 22 22 22 22 22 22 23 25 26 26
33 33 33 33 32 31 30 30 29 29 29 29 29 29 28 27 27 28 27 27 26 27 29 29 28 26 24 25 27 28 26 21 18 17 15 15 15 14 13 13 13 12 12 12 11 10 8 6 5 6 8 9 10 11 12 12 13 14 14 14 14 15 15 16 17 18 19 19 19 20 20 20 21 21 21 21 21 21 22 22 22 22 22 23 23
33 32 32 32 32 31 30 30 29 29 29 28 28 28 28 27 27 27 26 26 25 26 27 28 27 26 27 28 30 30 28 22 17 15 15 14 14 13 12 11 10 9 9 9 9 8 7 6 5 6 7 9 11 13 14 16 16 17 17 18 17 17 18 18 17 17 17 17 17 18 18 18 19 19 18 18 18 18 18 18 19 19 19 20 21
33 32 31 31 31 30 29 29 29 29 29 29 28 28 28 27 27 27 26 25 25 25 26 27 25 24 24 27 29 29 27 24 22 21 20 18 17 16 13 10 9 7 7 6 6 6 5 5 5 5 6 7 8 10 12 13 15 16 16 16 15 15 15 14 13 14 14 14 14 15 15 16 16 16 15 15 15 16 16 16 17 17 18 19 19
33 33 32 31 31 30 29 28 28 28 28 28 28 28 27 27 26 26 25 25 25 25 26 26 24 22 22 24 27 26 24 22 23 23 21 19 18 17 15 13 11 9 7 6 6 5 4 4 4 4 5 6 6 7 7 8 9 10 10 11 11 11 11 11 11 11 11 11 12 12 12 13 13 14 14 15 15 16 16 17 18 19 20 21 21
33 33 32 32 31 30 29 28 28 28 27 27 27 27 27 26 25 25 25 24 23 24 25 24 23 21 20 20 21 19 17 17 19 21 21 20 18 17 16 14 13 11 9 8 7 5 4 3 3 3 3 3 4 4 4 4 4 5 5 6 7 8 8 9 9 9 9 10 10 10 11 12 13 13 14 15 15 16 17 17 18 19 21 22 22
32 32 32 32 30 30 30 29 28 28 27 26 26 26 26 26 25 24 24 23 22 23 24 23 22 21 20 18 16 14 13 13 15 17 19 19 18 17 15 14 12 11 10 10 8 7 6 4 3 3 3 2 2 1 1 1 1 1 2 3 4 5 5 6 7 7 8 8 8 9 10 11 11 12 13 14 14 14 15 17 18 18 19 20 20
31 31 32 31 30 29 29 29 28 28 27 27 26 25 25 25 24 24 23 22 22 22 23 23 22 21 20 19 16 13 12 12 13 15 16 17 17 17 16 14 13 11 10 10 9 8 7 6 5 4 3 2 2 2 1 1 1 1 1 1 2 3 3 4 5 5 6 6 6 7 8 8 9 10 11 11 12 12 13 15 16 17 18 18 18
31 31 31 30 30 29 28 28 28 27 27 26 26 25 24 24 24 24 23 23 22 22 22 22 22 21 20 19 18 15 13 12 12 13 14 15 16 16 15 14 13 11 9 8 8 8 7 7 6 5 4 3 2 1 1 1 1 1 1 2 2 2 3 3 4 4 5 5 5 5 6 6 7 7 8 8 9 11 12 12 14 15 16 17 17
31 31 31 30 30 29 28 28 28 27 27 26 26 25 24 23 23 23 23 23 23 22 21 21 21 20 20 19 19 17 15 13 12 11 12 13 14 15 14 13 12 11 10 8 7 7 6 6 5 5 5 4 3 2 1 1 0 0 1 1 2 2 3 3 4 4 4 5 5 5 5 5 5 5 5 6 6 8 9 10 11 12 14 15 16
30 31 31 31 30 29 29 28 28 27 27 27 26 26 25 24 23 23 23 22 23 22 22 21 20 20 19 18 18 17 16 15 13 12 12 12 13 14 13 12 11 10 9 9 7 6 6 5 4 4 4 4 4 4 3 2 1 1 2 2 2 2 3 3 4 4 4 4 4 4 4 4 4 4 4 4 4 5 5 7 8 10 11 12 13
30 30 31 31 30 30 29 28 28 27 27 27 26 26 25 24 24 23 22 21 21 22 21 21 20 20 19 18 17 17 16 15 14 13 13 13 14 14 13 12 11 9 8 8 7 6 6 5 4 3 3 3 3 3 3 3 3 3 3 3 3 4 4 4 4 5 5 5 5 5 5 4 4 4 4 3 3 3 3 4 5 6 8 10 11
30 30 31 31 31 30 29 29 28 27 27 27 27 26 25 24 24 23 23 22 21 21 21 21 20 20 19 18 17 16 16 15 15 14 14 14 14 15 14 13 11 10 9 7 6 6 6 5 4 4 3 3 2 2 3 3 4 4 4 4 5 5 5 5 5 6 6 6 5 5 5 5 5 5 4 4 4 3 3 3 3 4 5 6 8
30 31 31 31 31 31 30 29 28 27 27 27 27 26 25 25 24 23 23 22 21 21 21 21 20 20 20 19 17 16 16 15 15 15 14 14 14 14 14 13 12 11 9 8 6 5 5 5 4 4 4 4 3 3 3 3 4 5 5 6 6 6 6 6 6 7 7 7 6 6 6 6 6 5 5 5 4 4 4 4 3 3 4 4 5
30 31 31 31 31 31 30 30 29 28 27 26 26 26 25 25 24 23 23 23 22 21 20 20 20 20 20 19 18 17 16 16 15 15 15 14 14 13 13 13 12 11 10 9 8 6 5 5 5 5 5 5 4 4 4 4 4 5 5 6 6 6 6 7 7 7 7 7 7 7 7 7 7 6 6 6 6 5 5 5 5 4 4 4 4
31 31 32 32 31 31 31 30 29 28 27 26 25 25 25 25 24 24 23 23 22 21 21 20 20 20 19 19 18 18 17 16 16 15 15 15 14 14 13 13 12 12 11 10 9 8 6 6 6 6 6 6 6 5 5 5 5 5 5 6 6 7 7 7 7 8 8 8 8 8 8 8 8 8 7 7 7 7 6 6 6 6 5 5 5
Wind_Direction
337 333 327 322 318 316 314 313 313 313 315 319 323 326 325 322 319 316 311 307 305 301 297 295 293 291 291 290 291 291 292 292 293 295 297 296 298 297 284 271 265 261 259 259 261 263 262 261 262 264 263 261 261 261 259 257 257 257 258 258 258 257 255 256 258 263 266 268 271 274 276 279 282 285 288 288 286 283 280 280 274 263 255 254 256
332 325 321 321 321 321 322 322 325 327 329 332 329 321 313 310 307 303 299 298 299 299 296 294 293 293 293 293 293 293 293 293 293 293 293 293 296 295 281 268 262 259 258 259 261 261 260 259 261 263 262 260 259 259 257 256 257 257 258 259 260 260 259 258 258 260 264 266 269 272 275 277 280 284 288 288 287 287 284 281 279 267 255 251 252
327 324 324 325 326 328 331 334 337 335 329 323 316 309 305 303 300 296 293 290 290 291 290 290 290 289 289 290 291 291 291 292 291 291 290 290 293 291 278 265 260 258 258 259 260 259 258 258 260 262 262 260 258 257 256 256 257 258 259 260 261 262 261 259 259 258 260 265 267 270 274 276 279 283 286 287 287 288 288 284 282 271 256 250 249
327 327 328 329 332 337 341 340 332 323 318 314 311 310 309 306 303 298 294 289 286 285 283 283 283 284 284 286 286 286 287 289 289 289 289 288 288 285 274 263 259 259 259 260 260 258 257 257 259 262 261 258 257 256 255 256 258 258 259 260 261 262 262 261 260 257 258 263 266 269 273 275 278 282 284 286 287 288 289 286 285 278 260 247 246
329 331 334 336 339 340 338 329 322 320 319 318 317 317 316 315 313 310 305 300 295 291 288 285 284 284 284 285 284 284 283 284 285 285 285 284 284 282 272 263 260 260 260 260 259 257 257 258 260 261 260 258 256 255 255 256 257 258 258 259 260 262 263 262 261 259 257 259 264 268 272 274 276 279 282 286 288 287 288 287 286 284 267 247 242
334 337 339 339 336 332 330 327 326 327 326 325 324 323 322 321 321 319 316 313 308 304 301 298 295 292 290 289 289 288 284 282 282 283 282 281 281 279 272 264 261 261 260 260 259 257 257 258 260 261 259 258 256 256 256 256 256 256 256 258 260 262 263 262 261 261 258 259 263 266 270 272 274 276 280 284 288 289 290 290 284 280 271 250 237
338 340 339 335 332 331 332 332 331 330 328 327 326 326 326 325 324 323 321 318 315 312 309 306 304 303 301 300 298 294 287 281 279 280 279 279 279 276 271 264 262 261 260 260 258 257 258 259 260 261 260 259 258 257 257 256 255 255 256 259 262 262 262 261 260 260 260 260 263 265 268 270 271 274 279 281 284 289 292 293 285 269 259 248 235
339 338 335 334 334 335 335 333 332 331 329 328 328 328 328 327 326 324 323 321 319 318 316 312 311 311 308 302 297 295 291 286 281 281 281 279 277 274 270 265 262 261 260 259 258 257 258 259 260 261 261 261 260 259 257 256 254 255 257 259 261 261 260 260 259 259 259 260 261 263 265 267 268 271 276 278 282 287 287 283 279 268 250 242 234
335 335 336 336 337 337 335 334 332 332 331 331 330 329 328 327 326 325 324 323 321 320 320 317 312 308 303 298 298 299 296 292 288 284 282 279 277 274 270 265 261 260 259 259 258 257 257 259 260 262 263 262 262 260 257 256 254 254 256 257 257 257 257 258 259 258 258 258 259 260 261 264 267 269 273 276 281 285 276 260 263 266 257 244 229
334 336 336 337 338 337 336 334 334 334 333 332 331 329 328 327 327 326 324 323 323 321 320 318 313 308 305 306 309 306 300 296 294 288 281 276 275 272 269 265 261 259 258 257 257 256 257 259 261 263 264 263 262 259 256 255 253 254 257 258 257 256 255 257 258 257 257 256 257 257 257 260 264 267 271 275 277 277 270 258 256 257 259 251 230
334 336 337 338 339 337 336 336 335 335 334 332 331 329 328 328 327 326 325 324 323 321 319 318 314 310 309 310 312 312 308 304 297 290 284 276 271 267 265 263 260 258 257 256 256 256 258 260 261 263 264 263 260 258 255 253 251 251 253 256 259 260 259 256 255 255 256 257 257 256 254 257 262 265 269 272 270 270 268 260 256 251 252 251 232
336 337 338 339 338 337 337 336 335 335 334 333 331 330 329 328 327 326 326 325 324 322 320 319 316 313 309 307 307 312 313 308 298 291 288 279 269 264 261 260 258 257 256 255 255 255 256 258 261 263 264 263 261 259 257 256 254 251 250 250 254 260 263 261 258 254 253 255 256 255 252 255 259 262 266 266 260 262 265 259 256 250 244 241 229
338 337 338 339 338 338 337 336 335 335 334 332 331 330 330 329 329 328 328 327 325 323 321 319 318 317 314 311 310 310 308 303 298 295 290 281 269 260 258 258 256 255 256 255 255 256 256 258 261 263 265 266 264 261 261 260 259 256 251 244 241 247 254 257 258 257 255 254 252 251 250 252 255 260 263 256 247 248 254 257 258 252 247 245 235
338 338 339 339 338 338 337 336 335 334 333 332 331 331 330 330 330 330 329 328 327 326 324 323 322 323 323 322 317 314 310 304 301 298 291 281 268 257 256 260 258 254 255 256 256 258 260 261 263 265 267 267 267 266 264 261 260 259 254 242 233 231 235 239 241 247 254 254 249 246 247 248 254 259 248 232 237 246 250 254 258 255 250 248 240
339 339 339 338 338 338 337 336 335 334 333 332 331 331 331 331 331 331 331 330 329 328 327 326 326 327 329 325 318 316 317 312 305 300 291 278 265 256 256 261 261 257 255 255 256 258 260 262 265 266 266 265 266 269 268 264 261 258 255 244 232 227 227 228 229 234 243 250 249 245 245 247 252 247 224 220 235 246 249 252 257 259 254 250 248
340 340 339 339 339 339 338 336 335 334 333 332 331 331 331 332 332 333 332 331 331 331 328 328 329 329 327 322 316 316 317 313 307 302 291 275 263 260 260 261 262 260 257 256 257 259 260 262 264 265 265 263 262 266 268 267 264 260 257 249 236 229 226 224 225 228 234 245 250 247 244 246 242 221 205 215 229 229 236 250 255 262 263 259 257
341 340 340 340 340 339 338 336 335 334 333 332 332 332 333 335 335 335 334 332 333 333 330 331 332 327 321 318 316 314 312 311 309 303 293 283 278 274 270 268 266 263 261 260 260 261 261 262 262 262 263 262 261 264 264 259 257 259 260 256 246 237 231 228 228 227 226 235 247 251 248 236 220 207 205 216 218 209 227 248 251 246 284 300 294
341 340 340 340 340 339 338 336 335 334 333 333 333 334 336 338 338 336 334 332 332 334 333 331 327 322 318 319 318 313 308 307 309 304 295 290 288 284 276 274 272 266 263 262 261 262 262 261 261 260 261 260 260 263 262 251 247 251 253 255 254 246 237 234 232 228 222 220 229 242 245 228 209 208 215 220 221 226 245 266 275 269 281 297 303
341 340 340 340 340 339 338 336 335 334 333 334 335 337 339 340 340 338 334 331 332 333 332 326 321 321 323 322 320 314 306 302 303 303 298 291 289 286 279 276 274 270 267 264 261 261 261 260 258 258 260 261 262 263 259 248 244 247 247 249 252 247 240 238 235 230 224 219 218 226 233 231 225 229 234 236 239 245 256 268 271 272 279 286 292
341 340 341 340 340 339 338 337 336 335 334 335 337 340 343 342 340 338 335 334 334 331 327 322 321 326 331 328 323 317 308 300 297 296 295 290 287 287 282 277 274 271 269 268 265 263 261 259 258 258 258 259 261 262 257 245 243 246 246 245 244 242 242 245 240 231 225 222 220 221 225 228 230 234 238 241 244 248 253 260 263 266 272 276 278
341 341 341 341 340 339 339 338 337 336 336 337 339 342 344 343 340 339 338 337 334 329 327 327 328 330 332 332 331 325 314 304 297 292 289 283 279 282 281 274 269 266 264 264 264 263 262 261 261 262 261 257 254 254 251 245 241 244 248 248 244 241 245 248 241 231 225 222 223 227 229 229 230 231 232 235 238 242 247 252 257 258 262 266 267
342 342 342 341 340 340 339 339 338 337 337 341 342 343 344 343 341 340 339 337 334 332 333 334 333 331 333 336 336 332 324 313 302 295 288 279 272 274 275 269 265 265 264 262 259 257 259 261 262 264 266 263 255 250 247 246 242 242 247 249 245 239 240 242 236 229 226 225 227 230 230 228 228 229 230 232 234 237 242 249 255 259 261 266 269
342 342 342 341 341 341 340 340 340 338 340 344 345 344 344 343 342 342 341 338 336 336 336 336 334 332 335 339 340 339 333 324 317 307 295 282 270 265 264 264 265 265 262 262 261 259 259 261 262 264 266 263 256 251 248 246 242 241 242 242 237 231 231 236 237 230 227 228 228 225 221 219 220 223 227 232 235 238 242 247 253 259 262 265 270
342 343 343 342 342 342 341 342 341 340 343 346 346 344 344 344 343 343 342 340 338 337 336 336 335 333 334 337 339 339 334 329 328 323 308 291 276 265 258 259 262 262 258 258 260 262 263 264 266 270 269 260 253 251 249 246 243 241 239 236 233 229 226 229 234 232 227 225 222 217 215 214 214 216 221 229 233 235 239 242 247 253 257 259 262
342 344 344 343 343 343 343 342 341 342 346 348 347 345 345 344 343 343 343 342 340 338 336 335 336 334 333 334 337 337 335 332 331 328 318 302 286 275 264 255 252 252 252 252 254 258 261 264 269 272 267 258 252 249 246 243 241 240 239 235 231 228 225 226 230 230 224 218 215 214 213 212 214 215 217 220 223 228 235 240 242 246 248 249 252
342 344 344 344 345 345 344 343 342 343 346 348 348 347 346 345 343 343 344 342 339 337 336 336 336 336 334 335 337 336 334 335 335 331 325 319 316 310 293 272 258 248 243 244 249 253 255 258 262 262 257 251 247 242 238 238 238 237 237 236 232 228 227 227 228 229 225 218 214 212 210 211 213 214 214 215 215 218 226 236 241 244 246 246 247
342 344 345 345 346 346 345 344 343 344 346 348 348 348 348 347 345 343 342 341 338 337 336 335 335 335 335 338 341 340 336 336 336 328 321 333 346 345 331 311 291 266 247 241 241 242 244 250 254 254 249 243 244 250 251 249 246 240 235 233 231 228 227 226 227 229 228 222 215 212 211 211 211 216 224 224 216 214 223 232 241 247 248 247 246
342 344 345 346 347 347 346 345 344 344 346 348 348 347 347 347 345 342 340 338 335 333 333 333 334 337 339 342 347 350 350 347 337 317 314 326 334 335 329 319 311 295 263 240 227 226 237 250 254 253 254 256 261 268 264 250 241 236 229 226 225 224 224 225 228 230 231 229 222 216 215 213 211 220 231 230 219 216 221 225 232 247 257 254 250
341 344 346 347 347 347 346 346 345 345 346 347 347 347 346 345 342 339 339 338 334 331 330 330 335 341 344 344 348 354 356 353 337 310 313 321 321 323 322 311 307 319 286 232 213 218 238 252 257 258 264 270 266 255 232 210 207 211 213 216 220 221 222 225 226 224 223 222 217 212 211 213 218 228 236 229 217 212 214 215 221 234 250 257 259
340 343 346 347 347 347 346 345 346 347 348 348 347 345 345 346 345 342 340 341 339 336 333 329 332 340 345 344 347 354 358 355 339 313 319 334 330 320 314 301 300 322 307 217 205 218 239 247 255 257 262 267 246 213 190 178 176 173 175 183 192 197 200 202 203 201 200 200 201 204 210 216 219 222 219 211 205 206 213 221 225 232 245 251 253
340 343 346 347 348 347 346 345 347 348 349 349 348 345 344 345 347 349 350 349 346 345 344 334 329 337 344 345 349 358 5 4 352 330 327 340 341 329 310 292 284 300 306 204 203 222 240 248 258 256 248 241 220 203 195 193 189 178 170 171 173 175 177 180 182 185 187 190 195 202 208 210 210 210 210 210 210 214 224 231 234 240 251 254 251
340 343 345 346 348 347 345 346 348 349 349 349 348 347 346 344 344 347 353 357 356 355 356 352 340 337 339 339 345 355 4 8 7 4 2 6 11 17 11 351 301 273 255 194 195 216 233 234 234 217 202 198 192 187 186 188 187 186 184 184 185 186 191 196 201 204 207 208 211 215 217 218 219 220 224 229 233 235 237 238 237 240 245 249 250
342 344 345 346 347 347 346 348 350 350 350 349 347 347 349 348 346 344 347 352 358 2 6 6 359 349 341 337 340 350 356 358 5 13 16 20 30 34 31 32 36 26 206 194 201 219 230 232 236 226 207 201 197 196 199 200 205 211 212 215 222 227 232 239 239 236 233 229 228 229 230 230 230 230 231 235 237 238 239 237 235 235 236 236 236
344 345 346 347 346 346 347 350 350 350 350 350 348 348 349 351 350 347 346 349 353 357 3 7 9 5 357 349 347 352 353 351 354 359 359 4 19 26 22 31 47 55 72 105 150 207 224 241 257 261 260 259 257 259 255 247 246 250 250 253 258 259 260 260 253 246 241 237 235 236 237 238 238 236 236 238 239 240 240 238 233 233 235 236 230
346 346 347 347 346 346 348 350 350 350 350 350 349 349 350 352 352 351 349 351 352 352 352 357 5 11 10 4 0 358 354 349 348 346 342 344 355 2 357 2 23 32 34 37 34 31 24 319 274 257 255 257 254 257 262 262 261 261 262 264 265 263 261 256 251 246 244 243 243 243 243 244 245 244 243 242 242 241 241 239 236 233 234 238 240
348 347 348 349 347 346 349 350 350 350 350 350 350 350 351 354 354 352 352 354 354 352 351 353 359 6 12 14 8 0 356 354 350 345 340 337 338 342 347 354 359 359 359 2 4 5 0 343 309 274 259 258 258 258 260 261 262 263 263 261 260 259 257 254 251 250 250 250 250 249 248 248 249 248 247 245 243 242 240 239 239 236 234 237 243
349 349 349 349 347 347 348 349 350 349 349 350 351 351 352 355 356 354 354 356 356 354 353 354 357 359 6 14 11 1 357 357 355 348 344 339 334 335 345 352 351 348 345 344 345 345 341 328 305 278 260 254 253 254 256 258 260 260 260 259 258 258 257 257 256 254 253 253 252 251 250 249 247 247 246 243 241 241 239 238 238 236 233 234 238
351 350 350 348 347 347 348 348 349 349 349 350 352 352 353 354 356 356 356 357 358 357 355 356 359 1 3 9 8 360 354 356 359 357 356 354 350 351 356 357 355 353 348 343 338 335 328 318 305 288 270 256 250 248 249 251 253 254 255 256 257 258 258 256 253 251 249 248 247 245 243 242 240 240 239 238 237 237 237 236 234 229 225 226 229
351 352 351 349 347 348 349 349 348 349 350 351 353 353 354 355 356 357 358 358 358 358 357 356 358 2 3 5 3 358 355 1 9 8 7 9 10 10 9 6 3 5 5 358 351 344 333 322 311 298 282 268 258 251 249 249 250 252 253 252 251 250 248 244 242 240 239 237 235 234 233 232 232 231 230 229 230 230 230 229 227 223 221 222 225
349 352 352 350 347 348 350 350 349 349 350 351 353 353 354 354 355 357 359 359 358 359 358 356 357 1 3 1 360 357 358 6 12 10 8 9 10 10 10 9 5 5 8 10 10 4 352 340 333 318 301 288 278 267 260 257 255 254 253 248 242 238 236 235 235 235 234 232 231 230 231 231 231 230 229 228 227 227 227 227 225 224 224 224 226
347 350 351 350 348 347 349 350 350 350 350 351 353 353 353 353 354 355 357 359 358 357 357 356 357 359 1 0 0 360 1 8 13 11 8 9 9 9 10 8 5 1 360 2 10 16 12 5 6 1 342 317 300 288 281 276 268 261 257 249 240 237 237 239 239 236 234 234 235 235 235 234 232 231 231 230 229 228 228 228 228 228 228 229 230
347 348 348 349 349 348 348 349 349 350 350 351 353 353 351 352 353 354 355 357 357 356 356 356 357 359 360 1 3 5 5 9 13 12 10 8 8 10 11 9 7 4 359 357 360 5 7 8 15 28 34 22 356 344 327 305 277 246 244 242 240 239 238 237 238 236 234 234 235 234 234 234 233 233 234 234 233 232 230 229 230 230 230 231 232
346 346 346 347 347 348 349 348 348 349 350 350 352 352 351 351 352 352 353 355 355 356 356 355 356 358 360 0 2 5 7 10 14 15 11 5 3 7 12 11 9 7 3 359 357 357 359 360 358 5 33 51 54 66 79 76 90 120 154 175 197 218 223 220 222 227 226 228 229 229 229 231 230 231 235 236 235 233 231 230 230 230 228 228 228
344 345 345 345 345 347 348 347 347 348 348 349 350 350 350 351 351 351 352 353 353 355 355 354 355 357 358 359 2 3 4 5 9 12 10 3 358 360 6 9 8 6 4 2 358 355 356 356 350 346 351 4 23 62 83 81 93 115 135 150 162 185 202 207 212 216 218 221 221 218 221 225 225 227 231 232 231 231 230 228 229 230 228 227 226
343 343 343 344 344 346 346 346 346 347 347 347 348 349 351 352 351 351 351 351 352 353 353 353 354 356 356 358 1 2 1 359 358 359 1 357 352 352 357 2 4 4 2 1 359 356 354 355 351 345 341 337 335 342 3 35 90 159 221 202 189 192 200 205 211 216 214 216 216 213 212 214 213 215 219 221 222 225 226 225 227 228 228 228 226
342 342 342 343 343 344 345 345 345 345 345 346 347 347 349 351 352 351 350 350 350 351 351 351 352 353 354 356 358 359 359 358 353 347 344 341 340 342 347 353 358 360 359 357 357 353 350 350 349 345 338 331 326 322 317 302 273 245 243 239 230 224 219 215 217 219 217 216 216 214 212 207 204 205 205 202 203 208 213 219 223 224 224 224 224
340 341 341 341 342 343 344 344 344 344 344 344 345 346 347 349 351 351 349 349 348 348 349 350 351 351 351 353 354 354 355 356 354 348 340 334 333 336 339 343 348 353 354 353 351 347 345 342 339 335 330 321 313 309 302 294 280 261 247 240 233 229 227 224 221 220 221 221 219 216 213 208 205 205 201 194 187 184 191 205 213 215 217 219 218
338 339 339 340 341 341 342 342 342 343 343 343 344 345 345 346 348 348 348 348 347 346 346 348 349 350 349 350 351 351 351 350 350 349 345 340 339 339 338 338 339 342 344 345 343 340 337 333 326 320 311 298 285 281 278 276 273 265 253 242 232 227 227 226 224 222 221 220 221 221 219 213 210 209 208 202 193 183 182 188 193 198 206 210 209
336 337 337 338 338 339 340 340 340 341 341 341 342 343 344 345 346 346 346 347 347 346 345 346 346 347 347 347 348 349 348 346 346 346 346 346 346 344 342 339 337 335 335 335 333 329 325 319 313 305 296 286 273 261 251 250 256 260 259 252 243 235 228 226 224 222 221 220 219 220 219 217 215 213 210 207 203 197 194 195 194 193 196 199 198
334 334 335 335 335 336 337 338 338 338 339 339 339 340 342 343 344 344 344 344 345 345 345 345 344 343 343 344 346 347 347 346 344 343 342 344 345 346 345 344 340 337 334 332 328 323 315 305 298 291 282 274 267 256 244 236 235 241 250 254 252 246 238 232 228 224 222 221 221 219 219 218 218 216 213 209 208 208 207 208 207 202 197 195 191
332 332 332 332 333 333 333 334 335 336 337 337 337 338 339 341 342 343 343 343 343 343 344 344 343 341 340 341 342 344 345 345 344 342 340 340 342 344 345 345 343 341 339 334 329 323 315 303 295 287 278 272 265 255 247 240 234 230 232 239 245 247 244 239 234 228 224 222 221 220 219 218 218 217 216 212 209 210 211 214 214 211 206 202 199